This is the latest recevied weather packets stored in our database for station/object KD7CTY. If no packets are shown the sender has not sent any weather packets the latest 10 day(s).
| Time | Temp. | Humidity | Pressure | Rain* | Wind** | Luminosity | Snow |
|---|---|---|---|---|---|---|---|
| 1788580314 | 15.56° C | 77% | 1014.6 hPa | 0 mm | - | 0 W/m² | - |
| 1788580010 | 15.56° C | 75% | 1014.6 hPa | 0 mm | - | 0 W/m² | - |
| 1788579709 | 15.56° C | 74% | 1014.7 hPa | 0 mm | - | 0 W/m² | - |
| 1788579408 | 15.56° C | 74% | 1014.8 hPa | 0 mm | - | 0 W/m² | - |
| 1788579104 | 15.56° C | 75% | 1014.7 hPa | 0 mm | - | 0 W/m² | - |
| 1788578804 | 15.56° C | 74% | 1014.6 hPa | 0 mm | - | 0 W/m² | - |
| 1788578498 | 15.56° C | 74% | 1014.6 hPa | 0 mm | - | 0 W/m² | - |
| 1788578194 | 15.56° C | 74% | 1014.4 hPa | 0 mm | - | 0 W/m² | - |
| 1788577890 | 15.56° C | 75% | 1014.3 hPa | 0 mm | - | 0 W/m² | - |
| 1788577584 | 16.11° C | 74% | 1014.3 hPa | 0 mm | - | 0 W/m² | - |
| 1788577280 | 15.56° C | 75% | 1014.8 hPa | 0 mm | - | 0 W/m² | - |
| 1788576974 | 16.11° C | 75% | 1014.4 hPa | 0 mm | - | 0 W/m² | - |
| 1788576670 | 15.56° C | 75% | 1014.3 hPa | 0 mm | - | 0 W/m² | - |
| 1788576366 | 15.56° C | 77% | 1014.3 hPa | 0 mm | - | 1 W/m² | - |
| 1788576061 | 16.11° C | 80% | 1014.3 hPa | 0 mm | - | 2 W/m² | - |
| 1788575755 | 16.11° C | 79% | 1014.5 hPa | 0 mm | - | 3 W/m² | - |
| 1788575450 | 16.67° C | 75% | 1014.5 hPa | 0 mm | - | 5 W/m² | - |
| 1788575150 | 16.11° C | 76% | 1014.2 hPa | 0 mm | - | 7 W/m² | - |
| 1788574845 | 16.67° C | 81% | 1014.4 hPa | 0 mm | - | 10 W/m² | - |
| 1788574544 | 16.67° C | 80% | 1014.3 hPa | 0 mm | - | 13 W/m² | - |
| 1788574240 | 17.22° C | 79% | 1014.4 hPa | 0 mm | - | 16 W/m² | - |
| 1788573939 | 17.22° C | 77% | 1014.4 hPa | 0 mm | - | 21 W/m² | - |
| 1788573635 | 17.22° C | 74% | 1014.1 hPa | 0 mm | - | 27 W/m² | - |
| 1788573333 | 17.78° C | 74% | 1014 hPa | 0 mm | - | 33 W/m² | - |
| 1788573028 | 17.78° C | 73% | 1014.1 hPa | 0 mm | - | 35 W/m² | - |
* Rain latest hour (hover to see other rain measurements)
** Current wind speed in m/s (hover to see current wind gust speed)